Location: Fisher's Paradise
(46.5411°N, 80.0984°W)
Time: 00:03:28
(UTC-04:00)

N. Korean satellite - Visible Passes

Search period start: 21 October 2019 00:00
Search period end: 31 October 2019 00:00
Orbit: 455 x 508 km, 97.2° (Epoch: 20 October)

Date Brightness Start Highest point End Pass type
(mag) Time Alt. Az. Time Alt. Az. Time Alt. Az.
21 Oct 9.1 06:40:35 10° NE 06:43:43 27° E 06:46:51 10° SSE visible
21 Oct 8.4 18:51:49 10° SSW 18:55:01 36° W 18:58:16 10° NNW visible
22 Oct 10.1 06:16:12 10° ENE 06:18:14 14° E 06:20:15 10° SE visible
23 Oct 10.3 19:36:46 10° WSW 19:38:05 12° W 19:39:25 10° WNW visible
24 Oct 8.1 06:57:45 10° NNE 07:01:15 43° E 07:04:46 10° S visible
24 Oct 9.4 19:09:46 10° SSW 19:12:34 23° W 19:15:23 10° NW visible
25 Oct 9.5 06:32:54 10° NE 06:35:50 22° E 06:38:46 10° SSE visible
25 Oct 7.8 18:43:47 10° S 18:47:06 46° W 18:50:30 10° NNW visible
26 Oct 10.4 06:08:53 10° ENE 06:10:18 12° E 06:11:44 10° ESE visible
27 Oct 7.0 07:15:03 10° NNE 07:18:44 73° ESE 07:22:25 10° S visible
27 Oct 10.0 19:28:06 10° SW 19:30:06 15° W 19:32:08 10° NW visible
28 Oct 8.5 06:49:57 10° NNE 06:53:22 35° E 06:56:46 10° SSE visible
28 Oct 8.9 19:01:34 10° SSW 19:04:35 28° W 19:07:41 10° NW visible
29 Oct 9.8 06:25:13 10° NE 06:27:53 19° E 06:30:33 10° SE visible
